When you browse on this site, cookies collect data to enhance your experience and personalize the content and advertising you see.
Visit our Privacy Policy to learn more. By continuing to use the site, you agree to this use of cookies and data.
  • In Deutschland
  • Länderverzeichnis
  • Für 7 Tage
  • Wassertemperatur
  • Satellitenkarten
  • Wetterkarte
  • Widgets
  • user-avatar
    Anmelden

    Stündliche Wetter Kukovenka

    Heute, 22 Februar, Freitag

    Zeit Temperatur Niederschläge Wind Luftdruck Luftfeuchtigkeit
    00:00 -13°C° 0 mm 5 m/S 741 mmHg 81%
    01:00 -13°C° 0 mm 5 m/S 741 mmHg 81%
    02:00 -14°C° 0 mm 5 m/S 742 mmHg 81%
    03:00 -14°C° 0 mm 5 m/S 742 mmHg 81%
    04:00 -14°C° 0 mm 5 m/S 742 mmHg 81%
    05:00 -14°C° 0 mm 5 m/S 743 mmHg 81%
    06:00 -15°C° 0 mm 6 m/S 743 mmHg 82%
    07:00 -14°C° 0 mm 6 m/S 743 mmHg 83%
    08:00 -14°C° 0 mm 6 m/S 744 mmHg 83%
    09:00 -14°C° 0.1 mm 6 m/S 745 mmHg 81%
    10:00 -13°C° 0.1 mm 7 m/S 745 mmHg 78%
    11:00 -13°C° 0.1 mm 7 m/S 746 mmHg 76%
    12:00 -12°C° 0.1 mm 7 m/S 746 mmHg 76%
    13:00 -12°C° 0.1 mm 7 m/S 747 mmHg 75%
    14:00 -12°C° 0.1 mm 7 m/S 747 mmHg 75%
    15:00 -12°C° 0 mm 7 m/S 748 mmHg 76%
    16:00 -11°C° 0 mm 6 m/S 749 mmHg 77%
    17:00 -12°C° 0 mm 6 m/S 749 mmHg 79%
    18:00 -12°C° 0 mm 6 m/S 750 mmHg 79%
    19:00 -12°C° 0 mm 5 m/S 751 mmHg 80%
    20:00 -13°C° 0 mm 5 m/S 752 mmHg 80%
    21:00 -13°C° 0 mm 5 m/S 752 mmHg 81%
    22:00 -12°C° 0 mm 4 m/S 753 mmHg 82%
    23:00 -14°C° 0 mm 4 m/S 754 mmHg 83%

    Morgen, 23 Februar, Samstag

    Zeit Temperatur Niederschläge Wind Luftdruck Luftfeuchtigkeit
    00:00 -14°C° 0 mm 4 m/S 754 mmHg 84%
    01:00 -14°C° 0 mm 4 m/S 755 mmHg 85%
    02:00 -14°C° 0 mm 4 m/S 755 mmHg 86%
    03:00 -14°C° 0 mm 4 m/S 756 mmHg 87%
    04:00 -15°C° 0 mm 4 m/S 756 mmHg 88%
    05:00 -15°C° 0 mm 4 m/S 757 mmHg 90%
    06:00 -14°C° 0 mm 3 m/S 757 mmHg 90%
    07:00 -15°C° 0 mm 3 m/S 757 mmHg 91%
    08:00 -15°C° 0 mm 3 m/S 758 mmHg 92%
    09:00 -14°C° 0 mm 3 m/S 758 mmHg 89%
    10:00 -12°C° 0 mm 3 m/S 758 mmHg 85%
    11:00 -9°C° 0 mm 2 m/S 758 mmHg 81%
    12:00 -8°C° 0 mm 2 m/S 758 mmHg 80%
    13:00 -7°C° 0 mm 2 m/S 758 mmHg 79%
    14:00 -6°C° 0 mm 2 m/S 757 mmHg 78%
    15:00 -7°C° 0 mm 2 m/S 757 mmHg 81%
    16:00 -8°C° 0 mm 3 m/S 757 mmHg 83%
    17:00 -8°C° 0 mm 3 m/S 756 mmHg 86%
    18:00 -8°C° 0 mm 3 m/S 756 mmHg 85%
    19:00 -9°C° 0 mm 4 m/S 755 mmHg 85%
    20:00 -9°C° 0 mm 4 m/S 755 mmHg 85%
    21:00 -10°C° 0.4 mm 5 m/S 754 mmHg 87%
    22:00 -10°C° 0.4 mm 5 m/S 754 mmHg 89%
    23:00 -10°C° 0.4 mm 6 m/S 753 mmHg 92%

    übermorgen, 24 Februar, Sonntag

    Zeit Temperatur Niederschläge Wind Luftdruck Luftfeuchtigkeit
    00:00 -9°C° 0.4 mm 6 m/S 753 mmHg 92%
    01:00 -8°C° 0.4 mm 5 m/S 753 mmHg 92%
    02:00 -8°C° 0.4 mm 5 m/S 752 mmHg 92%
    03:00 -8°C° 0.2 mm 5 m/S 752 mmHg 93%
    04:00 -7°C° 0.2 mm 5 m/S 752 mmHg 93%
    05:00 -7°C° 0.2 mm 4 m/S 751 mmHg 93%
    06:00 -5°C° 0.1 mm 4 m/S 751 mmHg 93%
    07:00 -5°C° 0.1 mm 4 m/S 751 mmHg 93%
    08:00 -4°C° 0.1 mm 4 m/S 751 mmHg 94%
    09:00 -4°C° 0 mm 4 m/S 751 mmHg 94%
    10:00 -3°C° 0 mm 4 m/S 752 mmHg 94%
    11:00 -2°C° 0 mm 4 m/S 752 mmHg 95%
    12:00 -2°C° 0 mm 4 m/S 752 mmHg 95%
    13:00 -2°C° 0 mm 4 m/S 752 mmHg 96%
    14:00 -1°C° 0 mm 3 m/S 752 mmHg 96%
    15:00 -1°C° 0 mm 3 m/S 752 mmHg 95%
    16:00 -1°C° 0 mm 3 m/S 752 mmHg 94%
    17:00 -1°C° 0 mm 3 m/S 752 mmHg 94%
    18:00 -1°C° 0 mm 3 m/S 752 mmHg 94%
    19:00 -1°C° 0 mm 3 m/S 752 mmHg 95%
    20:00 -1°C° 0 mm 3 m/S 752 mmHg 95%
    21:00 -1°C° 0 mm 3 m/S 751 mmHg 95%
    22:00 -2°C° 0 mm 4 m/S 751 mmHg 96%
    23:00 -2°C° 0 mm 4 m/S 751 mmHg 96%

    25 Februar, Montag

    Zeit Temperatur Niederschläge Wind Luftdruck Luftfeuchtigkeit
    00:00 -2°C° 0 mm 4 m/S 750 mmHg 96%
    01:00 -2°C° 0 mm 4 m/S 750 mmHg 96%
    02:00 -2°C° 0 mm 4 m/S 750 mmHg 96%
    03:00 -2°C° 0 mm 4 m/S 749 mmHg 95%
    04:00 -2°C° 0 mm 5 m/S 749 mmHg 95%
    05:00 -2°C° 0 mm 5 m/S 748 mmHg 95%
    06:00 -1°C° 0 mm 5 m/S 748 mmHg 94%
    07:00 -1°C° 0 mm 5 m/S 748 mmHg 94%
    08:00 -1°C° 0 mm 5 m/S 747 mmHg 94%
    09:00 -1°C° 0 mm 5 m/S 747 mmHg 95%
    10:00 -1°C° 0 mm 5 m/S 747 mmHg 95%
    11:00 -1°C° 0 mm 5 m/S 747 mmHg 95%
    12:00 -1°C° 0 mm 5 m/S 747 mmHg 93%
    13:00 -1°C° 0 mm 5 m/S 747 mmHg 91%
    14:00 -1°C° 0 mm 5 m/S 746 mmHg 89%
    15:00 -1°C° 0 mm 5 m/S 746 mmHg 89%
    16:00 -2°C° 0 mm 5 m/S 747 mmHg 88%
    17:00 -2°C° 0 mm 4 m/S 747 mmHg 88%
    18:00 -2°C° 0 mm 4 m/S 747 mmHg 87%
    19:00 -3°C° 0 mm 4 m/S 746 mmHg 87%
    20:00 -3°C° 0 mm 4 m/S 746 mmHg 86%
    21:00 -4°C° 0 mm 4 m/S 746 mmHg 87%
    22:00 -5°C° 0 mm 5 m/S 746 mmHg 87%
    23:00 -5°C° 0 mm 5 m/S 745 mmHg 88%

    26 Februar, Dienstag

    Zeit Temperatur Niederschläge Wind Luftdruck Luftfeuchtigkeit
    00:00 -5°C° 0 mm 5 m/S 745 mmHg 89%
    01:00 -5°C° 0 mm 5 m/S 744 mmHg 90%
    02:00 -5°C° 0 mm 5 m/S 744 mmHg 91%
    03:00 -4°C° 0 mm 4 m/S 743 mmHg 91%
    04:00 -4°C° 0 mm 4 m/S 742 mmHg 92%
    05:00 -3°C° 0 mm 4 m/S 741 mmHg 92%
    06:00 -3°C° 0.4 mm 4 m/S 740 mmHg 93%
    07:00 -3°C° 0.4 mm 4 m/S 739 mmHg 94%
    08:00 -3°C° 0.4 mm 4 m/S 738 mmHg 95%
    09:00 -3°C° 1 mm 4 m/S 737 mmHg 95%
    10:00 -3°C° 1 mm 4 m/S 736 mmHg 95%
    11:00 -3°C° 1 mm 4 m/S 734 mmHg 95%
    12:00 -2°C° 0.8 mm 4 m/S 734 mmHg 95%
    13:00 -2°C° 0.8 mm 4 m/S 733 mmHg 95%
    14:00 -1°C° 0.8 mm 5 m/S 732 mmHg 95%
    15:00 -1°C° 0.2 mm 4 m/S 732 mmHg 94%
    16:00 -1°C° 0.2 mm 4 m/S 733 mmHg 94%
    17:00 -1°C° 0.2 mm 4 m/S 733 mmHg 94%
    18:00 -2°C° 0.1 mm 4 m/S 734 mmHg 92%
    19:00 -2°C° 0.1 mm 5 m/S 734 mmHg 91%
    20:00 -4°C° 0.1 mm 5 m/S 735 mmHg 89%
    21:00 -4°C° 0 mm 5 m/S 736 mmHg 87%
    22:00 -4°C° 0 mm 5 m/S 737 mmHg 85%
    23:00 -5°C° 0 mm 5 m/S 737 mmHg 82%

    27 Februar, Mittwoch

    Zeit Temperatur Niederschläge Wind Luftdruck Luftfeuchtigkeit
    00:00 -4°C° 0 mm 4 m/S 738 mmHg 84%
    01:00 -5°C° 0 mm 4 m/S 738 mmHg 85%
    02:00 -5°C° 0 mm 4 m/S 738 mmHg 87%
    03:00 -5°C° 0.1 mm 4 m/S 738 mmHg 87%
    04:00 -5°C° 0.1 mm 4 m/S 739 mmHg 87%
    05:00 -4°C° 0.1 mm 4 m/S 739 mmHg 88%
    06:00 -5°C° 0 mm 4 m/S 739 mmHg 87%
    07:00 -6°C° 0 mm 5 m/S 739 mmHg 87%
    08:00 -7°C° 0 mm 5 m/S 740 mmHg 87%
    09:00 -6°C° 0 mm 5 m/S 740 mmHg 84%
    10:00 -6°C° 0 mm 5 m/S 740 mmHg 81%
    11:00 -6°C° 0 mm 5 m/S 740 mmHg 79%
    12:00 -6°C° 0 mm 5 m/S 740 mmHg 78%
    13:00 -5°C° 0 mm 4 m/S 740 mmHg 77%
    14:00 -5°C° 0 mm 4 m/S 740 mmHg 76%
    15:00 -5°C° 0 mm 3 m/S 740 mmHg 79%
    16:00 -5°C° 0 mm 2 m/S 740 mmHg 81%
    17:00 -6°C° 0 mm 2 m/S 740 mmHg 84%
    18:00 -6°C° 0 mm 2 m/S 739 mmHg 86%
    19:00 -6°C° 0 mm 2 m/S 739 mmHg 89%
    20:00 -5°C° 0 mm 2 m/S 738 mmHg 91%
    21:00 -6°C° 0 mm 3 m/S 737 mmHg 92%
    22:00 -5°C° 0 mm 4 m/S 736 mmHg 93%
    23:00 -4°C° 0 mm 4 m/S 735 mmHg 94%
    Mehr zeigen